Location: Meriden
(44.0740°N, 93.3870°W)
Time: 22:49:35
(UTC-05:00)

Amateur Radio Satellites - All Passes

Search period start: 16 April 2014 22:19
Search period end: 17 April 2014 22:19
Location: Meriden, 44.0740°N, 93.3870°W

Satellite Date Start Highest point End Downlink Frequencies (MHz)
Time Altitude Azimuth
MaSat-1 16 Apr 22:37:39 22:40:32 44° 115° (ESE) 22:43:05 437.345 MHz
Saudisat 1A 16 Apr 22:41:27 22:43:05 12° 252° (WSW) 22:44:42 436.775 MHz
HO-68 16 Apr 22:47:02 22:53:01 29° 266° (W) 22:59:04 435.675 MHz FM
FUNcube-1 16 Apr 23:08:13 23:12:27 70° 258° (WSW) 23:16:38 145.950 - 145.970 MHz USB
Oscar 11 16 Apr 23:29:10 23:31:36 15° 270° (W) 23:34:02 145.825 FM, Beacon 2401.500 USB
ISS 16 Apr 23:39:36 23:42:47 39° 219° (SW) 23:45:56 145.800 FM
SO-50 17 Apr 00:39:41 00:43:57 35° 46° (NE) 00:48:16 436.795 FM
Sapphire 17 Apr 00:54:15 00:58:22 23° 107° (ESE) 01:02:30 437.095 MHz 1200 baud AX-25 AFSK
Oscar 16 17 Apr 01:29:21 01:31:28 12° 88° (E) 01:33:34 437.025 USB, Beacon 2401.1428
PCSat 17 Apr 01:37:58 01:43:14 56° 115° (ESE) 01:48:32 145.825 MHz
UOSAT-12 17 Apr 01:39:40 01:42:14 14° 32° (NNE) 01:44:48 437.025 FM, 437.400 FM
OPAL 17 Apr 01:49:35 01:53:33 24° 61° (ENE) 01:57:34 ?
Uribyol 2 17 Apr 01:59:29 02:01:29 12° 88° (E) 02:03:28 436.500 FM
SO-50 17 Apr 02:20:20 02:24:30 33° 244° (WSW) 02:28:42 436.795 FM
KITSAT 1 17 Apr 02:32:32 02:38:05 21° 102° (ESE) 02:43:39 435.175 FM
Sapphire 17 Apr 02:36:03 02:41:23 57° 305° (NW) 02:46:44 437.095 MHz 1200 baud AX-25 AFSK
AO-27 17 Apr 02:36:21 02:40:42 27° 95° (E) 02:45:01 436.795 MHz FM
ITAMSAT 1 17 Apr 02:47:36 02:52:15 33° 96° (E) 02:56:53 435.822 SSB
Oscar 10/S400 17 Apr 02:54:34 03:12:30 27° 130° (SE) 04:03:32 145.825 - 145.975 CW/USB, Beacon 145.810 USB
Oscar 19 17 Apr 02:58:28 03:03:42 77° 103° (ESE) 03:08:53 437.125 CW, 437.150 USB
TMSAT-1 17 Apr 03:05:29 03:06:37 11° 86° (E) 03:07:45 436.925 FM
Oscar 16 17 Apr 03:06:15 03:11:29 85° 285° (WNW) 03:16:41 437.025 USB, Beacon 2401.1428
UOSAT-12 17 Apr 03:18:36 03:23:19 65° 53° (NE) 03:27:59 437.025 FM, 437.400 FM
PCSat 17 Apr 03:22:25 03:26:59 27° 315° (NW) 03:31:34 145.825 MHz
AO-Echo 17 Apr 03:22:45 03:27:31 55° 100° (E) 03:32:08 ?
OPAL 17 Apr 03:27:19 03:32:08 47° 259° (WSW) 03:37:04 ?
Uribyol 2 17 Apr 03:36:26 03:41:38 86° 285° (WNW) 03:46:49 436.500 FM
Gurwin Techsat 1B 17 Apr 03:52:10 03:57:13 42° 98° (E) 04:02:13 435.225 FM
AO-27 17 Apr 04:15:31 04:20:21 41° 292° (WNW) 04:25:10 436.795 MHz FM
Sapphire 17 Apr 04:23:23 04:26:02 14° 327° (NNW) 04:28:41 437.095 MHz 1200 baud AX-25 AFSK
KITSAT 1 17 Apr 04:24:18 04:32:26 89° 302° (WNW) 04:40:37 435.175 FM
ITAMSAT 1 17 Apr 04:27:07 04:31:43 33° 294° (WNW) 04:36:19 435.822 SSB
Oscar 19 17 Apr 04:39:20 04:42:24 16° 301° (WNW) 04:45:28 437.125 CW, 437.150 USB
TMSAT-1 17 Apr 04:42:00 04:47:19 84° 104° (ESE) 04:52:37 436.925 FM
JAS-1B 17 Apr 04:47:24 04:52:48 42° 98° (E) 04:58:15 435.800 - 435.900 CW/SSB
Oscar 16 17 Apr 04:47:46 04:50:02 13° 303° (WNW) 04:52:19 437.025 USB, Beacon 2401.1428
AO-7 17 Apr 04:59:06 05:06:30 34° 96° (E) 05:13:52 29.400 - 29.500 MHz
UOSAT-12 17 Apr 04:59:58 05:02:59 17° 250° (WSW) 05:05:58 437.025 FM, 437.400 FM
AO-Echo 17 Apr 05:02:34 05:05:51 19° 299° (WNW) 05:09:05 ?
Uosat F 17 Apr 05:17:10 05:22:10 68° 102° (ESE) 05:27:08 435.120 FM
Uribyol 2 17 Apr 05:18:03 05:20:19 13° 303° (WNW) 05:22:36 436.500 FM
Gurwin Techsat 1B 17 Apr 05:32:32 05:36:59 28° 296° (WNW) 05:41:25 435.225 FM
STRAND 1 17 Apr 06:01:38 06:05:51 27° 64° (ENE) 06:10:05 ?
RS-15 17 Apr 06:21:56 06:30:26 26° 102° (ESE) 06:38:42 29.354 - 29.394 USB, Beacon 29.352 USB
KITSAT 1 17 Apr 06:22:09 06:28:57 28° 325° (NW) 06:35:47 435.175 FM
TMSAT-1 17 Apr 06:23:38 06:26:33 15° 302° (WNW) 06:29:27 436.925 FM
Hamsat 17 Apr 06:34:44 06:37:51 19° 92° (E) 06:40:57 145.90 MHz
JAS-1B 17 Apr 06:38:36 06:43:21 28° 298° (WNW) 06:48:05 435.800 - 435.900 CW/SSB
AO-7 17 Apr 06:51:33 06:59:38 58° 296° (WNW) 07:07:42 29.400 - 29.500 MHz
Uosat F 17 Apr 06:57:16 07:00:26 17° 300° (WNW) 07:03:35 435.120 FM
MaSat-1 17 Apr 07:00:17 07:01:58 14° 55° (NE) 07:03:47 437.345 MHz
JAS-2 17 Apr 07:33:38 07:38:05 26° 95° (E) 07:42:48 435.800 - 435.900 CW/SSB, 435.910 FM
STRAND 1 17 Apr 07:40:01 07:44:51 41° 262° (W) 07:49:42 ?
AO-40 17 Apr 07:46:55 09:41:31 16° 128° (SE) 10:48:25 Beacon 2401.320
SO-67 17 Apr 08:08:03 08:11:18 34° 97° (E) 08:14:31 435.3500 MHz FM
Hamsat 17 Apr 08:09:55 08:14:01 42° 289° (WNW) 08:18:07 145.90 MHz
KITSAT 1 17 Apr 08:23:17 08:27:39 15° 355° (N) 08:32:01 435.175 FM
RS-15 17 Apr 08:30:02 08:41:23 88° 304° (NW) 08:52:25 29.354 - 29.394 USB, Beacon 29.352 USB
MaSat-1 17 Apr 08:37:50 08:40:25 28° 247° (WSW) 08:43:23 437.345 MHz
PCSat 17 Apr 08:42:20 08:45:13 14° 34° (NE) 08:48:06 145.825 MHz
AO-7 17 Apr 08:46:28 08:50:42 15° 318° (NW) 08:54:57 29.400 - 29.500 MHz
JAS-2 17 Apr 09:18:24 09:23:21 43° 291° (WNW) 09:28:41 435.800 - 435.900 CW/SSB, 435.910 FM
Sapphire 17 Apr 09:39:33 09:44:15 29° 46° (NE) 09:48:55 437.095 MHz 1200 baud AX-25 AFSK
SO-67 17 Apr 09:42:03 09:44:11 15° 294° (WNW) 09:46:19 435.3500 MHz FM
HO-68 17 Apr 10:11:25 10:18:26 53° 101° (E) 10:25:24 435.675 MHz FM
KITSAT 1 17 Apr 10:20:55 10:26:48 21° 25° (NNE) 10:32:39 435.175 FM
PCSat 17 Apr 10:24:23 10:29:47 62° 56° (NE) 10:35:09 145.825 MHz
RS-15 17 Apr 10:45:30 10:55:22 35° 331° (NNW) 11:05:07 29.354 - 29.394 USB, Beacon 29.352 USB
FUNcube-1 17 Apr 10:56:39 10:59:46 20° 93° (E) 11:02:53 145.950 - 145.970 MHz USB
Saudisat 1A 17 Apr 11:09:42 11:12:08 15° 110° (ESE) 11:14:34 436.775 MHz
Oscar 11 17 Apr 11:13:02 11:17:25 89° 283° (WNW) 11:21:46 145.825 FM, Beacon 2401.500 USB
Sapphire 17 Apr 11:22:41 11:27:56 51° 245° (WSW) 11:33:08 437.095 MHz 1200 baud AX-25 AFSK
HO-68 17 Apr 11:59:34 12:05:51 34° 300° (WNW) 12:12:08 435.675 MHz FM
PCSat 17 Apr 12:08:48 12:12:43 21° 254° (WSW) 12:16:38 145.825 MHz
KITSAT 1 17 Apr 12:16:06 12:24:08 59° 51° (NE) 12:32:04 435.175 FM
FUNcube-1 17 Apr 12:32:24 12:36:20 39° 289° (WNW) 12:40:19 145.950 - 145.970 MHz USB
Oscar 19 17 Apr 12:39:48 12:43:14 18° 60° (ENE) 12:46:42 437.125 CW, 437.150 USB
Saudisat 1A 17 Apr 12:46:45 12:51:12 69° 307° (NW) 12:55:41 436.775 MHz
Oscar 16 17 Apr 12:47:04 12:50:59 23° 62° (ENE) 12:54:55 437.025 USB, Beacon 2401.1428
Oscar 11 17 Apr 12:52:16 12:52:54 10° 301° (WNW) 12:53:32 145.825 FM, Beacon 2401.500 USB
AO-Echo 17 Apr 13:01:37 13:03:51 13° 58° (ENE) 13:06:05 ?
RS-15 17 Apr 13:03:29 13:12:07 25° 6° (N) 13:20:45 29.354 - 29.394 USB, Beacon 29.352 USB
Uribyol 2 17 Apr 13:17:59 13:21:59 23° 63° (ENE) 13:26:00 436.500 FM
Gurwin Techsat 1B 17 Apr 13:39:06 13:40:55 12° 55° (NE) 13:42:44 435.225 FM
AO-27 17 Apr 13:55:49 14:00:46 47° 69° (ENE) 14:05:44 436.795 MHz FM
ITAMSAT 1 17 Apr 14:06:59 14:12:04 58° 71° (ENE) 14:17:09 435.822 SSB
KITSAT 1 17 Apr 14:12:01 14:19:10 36° 251° (WSW) 14:26:16 435.175 FM
AO-7 17 Apr 14:12:44 14:16:29 14° 41° (NE) 14:20:14 29.400 - 29.500 MHz
Oscar 19 17 Apr 14:16:59 14:22:04 65° 258° (WSW) 14:27:13 437.125 CW, 437.150 USB
Oscar 16 17 Apr 14:25:01 14:30:00 51° 260° (W) 14:35:02 437.025 USB, Beacon 2401.1428
TMSAT-1 17 Apr 14:26:14 14:30:11 22° 62° (ENE) 14:34:07 436.925 FM
Saudisat 1A 17 Apr 14:29:19 14:31:39 14° 327° (NNW) 14:33:58 436.775 MHz
AO-Echo 17 Apr 14:36:36 14:41:53 85° 75° (ENE) 14:47:03 ?
Uosat F 17 Apr 14:55:53 14:58:46 16° 59° (ENE) 15:01:39 435.120 FM
Uribyol 2 17 Apr 14:56:10 15:01:09 49° 260° (W) 15:06:11 436.500 FM
Gurwin Techsat 1B 17 Apr 15:14:42 15:19:59 76° 74° (ENE) 15:25:19 435.225 FM
RS-15 17 Apr 15:17:42 15:28:08 46° 39° (NE) 15:38:41 29.354 - 29.394 USB, Beacon 29.352 USB
JAS-1B 17 Apr 15:32:40 15:40:25 50° 69° (ENE) 15:46:57 435.800 - 435.900 CW/SSB
OPAL 17 Apr 15:35:30 15:40:24 39° 100° (E) 15:45:16 ?
AO-27 17 Apr 15:36:26 15:40:31 23° 267° (W) 15:44:37 436.795 MHz FM
ITAMSAT 1 17 Apr 15:48:21 15:51:56 19° 268° (W) 15:55:32 435.822 SSB
AO-7 17 Apr 15:59:30 16:07:26 54° 63° (ENE) 16:15:24 29.400 - 29.500 MHz
TMSAT-1 17 Apr 16:04:31 16:09:42 56° 260° (W) 16:14:55 436.925 FM
AO-Echo 17 Apr 16:19:00 16:21:14 13° 272° (W) 16:23:28 ?
ISS 17 Apr 16:23:12 16:26:09 29° 138° (SE) 16:29:08 145.800 FM
Uosat F 17 Apr 16:31:55 16:36:57 76° 257° (WSW) 16:42:00 435.120 FM
SO-50 17 Apr 16:36:18 16:40:41 56° 120° (ESE) 16:45:07 436.795 FM
Gurwin Techsat 1B 17 Apr 16:57:39 17:00:32 15° 271° (W) 17:03:26 435.225 FM
OPAL 17 Apr 17:14:39 17:19:08 30° 297° (WNW) 17:23:36 ?
JAS-1B 17 Apr 17:23:44 17:31:07 35° 263° (W) 17:37:29 435.800 - 435.900 CW/SSB
RS-15 17 Apr 17:30:17 17:40:59 64° 244° (WSW) 17:51:59 29.354 - 29.394 USB, Beacon 29.352 USB
Hamsat 17 Apr 17:30:25 17:33:08 17° 64° (ENE) 17:35:53 145.90 MHz
UOSAT-12 17 Apr 17:33:54 17:35:59 13° 108° (ESE) 17:38:04 437.025 FM, 437.400 FM
JAS-2 17 Apr 17:50:20 17:53:08 14° 58° (ENE) 17:55:50 435.800 - 435.900 CW/SSB, 435.910 FM
AO-7 17 Apr 17:52:57 18:00:27 38° 262° (W) 18:08:01 29.400 - 29.500 MHz
ISS 17 Apr 17:59:34 18:02:49 45° 336° (NNW) 18:06:04 145.800 FM
SO-50 17 Apr 18:18:02 18:21:35 23° 320° (NW) 18:25:11 436.795 FM
SO-67 17 Apr 18:44:14 18:46:29 16° 67° (ENE) 18:48:45 435.3500 MHz FM
HO-68 17 Apr 19:01:56 19:02:12 10° 43° (NE) 19:02:28 435.675 MHz FM
Hamsat 17 Apr 19:04:43 19:08:46 47° 261° (W) 19:12:53 145.90 MHz
UOSAT-12 17 Apr 19:10:54 19:15:28 79° 306° (NW) 19:20:09 437.025 FM, 437.400 FM
JAS-2 17 Apr 19:31:40 19:37:38 89° 255° (WSW) 19:43:03 435.800 - 435.900 CW/SSB, 435.910 FM
Saudisat 1A 17 Apr 19:33:22 19:36:53 22° 40° (NE) 19:40:21 436.775 MHz
ISS 17 Apr 19:37:26 19:40:08 22° 356° (N) 19:42:52 145.800 FM
RS-15 17 Apr 19:46:43 19:50:58 13° 265° (W) 19:55:16 29.354 - 29.394 USB, Beacon 29.352 USB
STRAND 1 17 Apr 19:48:46 19:53:49 59° 101° (ESE) 19:58:50 ?
SO-67 17 Apr 20:16:15 20:19:25 32° 263° (W) 20:22:36 435.3500 MHz FM
HO-68 17 Apr 20:41:27 20:48:10 46° 64° (ENE) 20:54:54 435.675 MHz FM
UOSAT-12 17 Apr 20:53:33 20:56:24 16° 326° (NNW) 20:59:18 437.025 FM, 437.400 FM
Saudisat 1A 17 Apr 21:12:29 21:16:49 55° 240° (WSW) 21:21:04 436.775 MHz
ISS 17 Apr 21:14:35 21:17:36 30° 16° (NNE) 21:20:37 145.800 FM
JAS-2 17 Apr 21:21:22 21:23:22 12° 271° (W) 21:25:19 435.800 - 435.900 CW/SSB, 435.910 FM
STRAND 1 17 Apr 21:28:59 21:32:34 20° 299° (WNW) 21:36:09 ?
FUNcube-1 17 Apr 21:55:17 21:58:19 20° 65° (ENE) 22:01:21 145.950 - 145.970 MHz USB
Oscar 11 17 Apr 22:09:23 22:13:41 85° 76° (ENE) 22:18:02 145.825 FM, Beacon 2401.500 USB
